N42J KEYW-KRSW

Flight info

Callsign N42J
Flight time 0h 38m
Altitude VFR/085
Route
Aircraft PC12/L-DOV/C

Departure

Time 2026-05-04 17:14
Airport Key West International Airport (KEYW)

Arrival

Time 2026-05-04 17:52
Airport Southwest Florida International Airport (KRSW)
Time Latitude Longitude Altitude Speed Heading
2026-05-04 17:10 24.55489 -81.76085 6 ft 0 kts
2026-05-04 17:11 24.55521 -81.76099 6 ft 10 kts 297°
2026-05-04 17:11 24.55523 -81.76211 6 ft 19 kts 271°
2026-05-04 17:11 24.55521 -81.76575 6 ft 9 kts 271°
2026-05-04 17:12 24.55521 -81.76599 6 ft 8 kts 271°
2026-05-04 17:12 24.55606 -81.76633 6 ft 0 kts 86°
2026-05-04 17:13 24.55611 -81.76143 6 ft 97 kts 87°
2026-05-04 17:14 24.56065 -81.73298 903 ft 147 kts 35°
2026-05-04 17:14 24.57050 -81.73047 1337 ft 153 kts 351°
2026-05-04 17:14 24.59324 -81.73423 2002 ft 177 kts 351°
2026-05-04 17:15 24.60585 -81.73596 2334 ft 187 kts 351°
2026-05-04 17:15 24.63279 -81.73650 2943 ft 205 kts 21°
2026-05-04 17:16 24.65108 -81.71165 3580 ft 219 kts 53°
2026-05-04 17:16 24.68591 -81.68536 4670 ft 209 kts 341°
2026-05-04 17:17 24.69975 -81.69006 5009 ft 210 kts 338°
2026-05-04 17:17 24.74339 -81.70026 5979 ft 220 kts 353°
2026-05-04 17:18 24.75878 -81.70012 6306 ft 223 kts 358°
2026-05-04 17:18 24.79008 -81.69648 6964 ft 226 kts
2026-05-04 17:19 24.82111 -81.69035 7620 ft 227 kts
2026-05-04 17:19 24.85213 -81.68307 8316 ft 228 kts
2026-05-04 17:20 24.88502 -81.67487 8403 ft 254 kts
2026-05-04 17:20 24.92082 -81.66559 8397 ft 271 kts
2026-05-04 17:20 24.93929 -81.66074 8392 ft 277 kts
2026-05-04 17:21 24.97741 -81.65073 8393 ft 284 kts
2026-05-04 17:21 25.01634 -81.64046 8387 ft 288 kts
2026-05-04 17:22 25.03586 -81.63530 8391 ft 288 kts
2026-05-04 17:22 25.05533 -81.63016 8388 ft 288 kts
2026-05-04 17:23 25.11403 -81.61575 8383 ft 284 kts 355°
2026-05-04 17:23 25.13201 -81.62270 8423 ft 271 kts 322°
2026-05-04 17:23 25.16298 -81.64674 8389 ft 273 kts 320°
2026-05-04 17:24 25.17841 -81.65896 8387 ft 273 kts 320°
2026-05-04 17:24 25.22477 -81.69568 8391 ft 273 kts 320°
2026-05-04 17:25 25.24040 -81.70808 8390 ft 273 kts 320°
2026-05-04 17:25 25.27114 -81.73242 8386 ft 273 kts 320°
2026-05-04 17:26 25.30211 -81.75698 8397 ft 273 kts 320°
2026-05-04 17:26 25.34862 -81.79385 8394 ft 273 kts 320°
2026-05-04 17:27 25.37943 -81.81817 8386 ft 274 kts 322°
2026-05-04 17:27 25.41480 -81.83518 8388 ft 278 kts 340°
2026-05-04 17:28 25.45257 -81.84403 8072 ft 275 kts 347°
2026-05-04 17:29 25.50846 -81.85172 7484 ft 264 kts 351°
2026-05-04 17:29 25.56288 -81.85747 6895 ft 259 kts 352°
2026-05-04 17:30 25.61688 -81.86282 6303 ft 255 kts 352°
2026-05-04 17:31 25.65220 -81.86626 5917 ft 253 kts 353°
2026-05-04 17:31 25.70470 -81.87135 5334 ft 250 kts 353°
2026-05-04 17:32 25.73927 -81.87472 4941 ft 249 kts 354°
2026-05-04 17:33 25.79082 -81.87972 4421 ft 244 kts 355°
2026-05-04 17:33 25.80760 -81.88135 4399 ft 237 kts 355°
2026-05-04 17:34 25.85648 -81.88608 4017 ft 235 kts 356°
2026-05-04 17:34 25.87289 -81.88767 3865 ft 235 kts 356°
2026-05-04 17:35 25.92193 -81.89243 3428 ft 233 kts 356°
2026-05-04 17:35 25.95363 -81.89554 3278 ft 228 kts 358°
2026-05-04 17:35 25.96969 -81.89709 3082 ft 232 kts 358°
2026-05-04 17:36 25.98581 -81.89864 2897 ft 234 kts 357°
2026-05-04 17:36 26.00213 -81.90020 2703 ft 236 kts 357°
2026-05-04 17:36 26.01857 -81.90179 2509 ft 237 kts 357°
2026-05-04 17:36 26.03499 -81.90339 2314 ft 238 kts 357°
2026-05-04 17:37 26.05176 -81.90502 2117 ft 239 kts 357°
2026-05-04 17:37 26.06825 -81.90662 1952 ft 238 kts 357°
2026-05-04 17:37 26.08468 -81.90823 1912 ft 232 kts 357°
2026-05-04 17:37 26.10068 -81.90978 1904 ft 227 kts 358°
2026-05-04 17:38 26.11638 -81.91125 1909 ft 222 kts 358°
2026-05-04 17:38 26.13150 -81.91264 1904 ft 215 kts 358°
2026-05-04 17:38 26.14601 -81.91398 1903 ft 204 kts 358°
2026-05-04 17:38 26.15998 -81.91533 1904 ft 194 kts 358°
2026-05-04 17:39 26.18581 -81.91784 1910 ft 179 kts 358°
2026-05-04 17:39 26.19814 -81.91904 1906 ft 174 kts 358°
2026-05-04 17:39 26.21003 -81.92020 1907 ft 169 kts 359°
2026-05-04 17:40 26.22160 -81.92133 1907 ft 165 kts 358°
2026-05-04 17:40 26.23234 -81.92240 2210 ft 136 kts 359°
2026-05-04 17:40 26.24242 -81.92338 1923 ft 153 kts 359°
2026-05-04 17:40 26.25271 -81.92437 1895 ft 150 kts 358°
2026-05-04 17:41 26.26295 -81.92538 1902 ft 145 kts 359°
2026-05-04 17:41 26.27292 -81.92635 1912 ft 142 kts 359°
2026-05-04 17:41 26.28285 -81.92732 1913 ft 141 kts 359°
2026-05-04 17:41 26.29256 -81.92828 1911 ft 139 kts 359°
2026-05-04 17:42 26.30232 -81.92923 1913 ft 138 kts 359°
2026-05-04 17:42 26.31184 -81.93016 1910 ft 137 kts 359°
2026-05-04 17:42 26.32149 -81.93110 1910 ft 137 kts 359°
2026-05-04 17:42 26.33093 -81.93203 1911 ft 136 kts 359°
2026-05-04 17:43 26.34036 -81.93295 1911 ft 136 kts 359°
2026-05-04 17:43 26.34989 -81.93388 1912 ft 136 kts 359°
2026-05-04 17:43 26.35926 -81.93479 1914 ft 135 kts 359°
2026-05-04 17:43 26.36868 -81.93572 1915 ft 135 kts 359°
2026-05-04 17:44 26.37807 -81.93711 1910 ft 136 kts 358°
2026-05-04 17:44 26.38707 -81.94067 1920 ft 143 kts 322°
2026-05-04 17:44 26.39134 -81.95065 1927 ft 151 kts 277°
2026-05-04 17:44 26.39113 -81.96255 1919 ft 153 kts 269°
2026-05-04 17:45 26.39353 -81.97359 1908 ft 144 kts 309°
2026-05-04 17:45 26.40116 -81.97966 1960 ft 129 kts 347°
2026-05-04 17:45 26.41001 -81.98219 1917 ft 132 kts 352°
2026-05-04 17:45 26.41907 -81.98324 1894 ft 127 kts 15°
2026-05-04 17:46 26.42706 -81.97985 1907 ft 122 kts 25°
2026-05-04 17:46 26.43495 -81.97597 1911 ft 121 kts 25°
2026-05-04 17:46 26.44263 -81.97217 1914 ft 121 kts 26°
2026-05-04 17:46 26.45041 -81.96829 1915 ft 121 kts 25°
2026-05-04 17:47 26.45811 -81.96448 1914 ft 121 kts 26°
2026-05-04 17:47 26.46589 -81.96062 1916 ft 121 kts 26°
2026-05-04 17:47 26.47363 -81.95682 1915 ft 121 kts 25°
2026-05-04 17:47 26.48176 -81.95397 1911 ft 121 kts 17°
2026-05-04 17:48 26.49004 -81.95234 1908 ft 119 kts 11°
2026-05-04 17:48 26.49826 -81.95155 1912 ft 117 kts
2026-05-04 17:48 26.50638 -81.95131 1905 ft 115 kts
2026-05-04 17:48 26.51415 -81.95007 1884 ft 110 kts 32°
2026-05-04 17:49 26.51975 -81.94471 1909 ft 105 kts 44°
2026-05-04 17:49 26.52483 -81.93870 1835 ft 110 kts 47°
2026-05-04 17:49 26.52998 -81.93237 1717 ft 111 kts 47°
2026-05-04 17:49 26.53525 -81.92569 1479 ft 110 kts 49°
2026-05-04 17:50 26.54028 -81.91974 1265 ft 104 kts 46°
2026-05-04 17:50 26.54527 -81.91419 1083 ft 102 kts 45°
2026-05-04 17:50 26.55013 -81.90851 925 ft 99 kts 49°
2026-05-04 17:50 26.55470 -81.90264 772 ft 97 kts 49°
2026-05-04 17:51 26.55912 -81.89710 628 ft 95 kts 52°
2026-05-04 17:51 26.56346 -81.89153 506 ft 95 kts 49°
2026-05-04 17:51 26.56796 -81.88618 397 ft 94 kts 49°
2026-05-04 17:51 26.57241 -81.88061 266 ft 96 kts 49°
2026-05-04 17:52 26.57673 -81.87515 149 ft 94 kts 49°
2026-05-04 17:52 26.58125 -81.86968 39 ft 95 kts 50°
2026-05-04 17:52 26.58503 -81.86491 19 ft 64 kts 50°
2026-05-04 17:52 26.58670 -81.86291 16 ft 25 kts 47°
2026-05-04 17:53 26.58690 -81.86167 16 ft 15 kts 124°
2026-05-04 17:53 26.58670 -81.86140 16 ft 0 kts 126°